Location: Berg
(48.4333°N, 13.9167°E)
Time: 02:30:13
(UTC+00:00)

Cosmos 2026 Rocket - Pass Details

Date: 18 September 2020
Orbit: 940 x 1000 km, 82.9° (Epoch: 24 October)

Event Time Altitude Azimuth Distance (km) Brightness Sun altitude
Rises 19:56:05 0° 348° (NNW) 3,715 7.7 -26.5°
Reaches altitude 10° 19:58:37 10° 346° (NNW) 2,768 7.0 -26.8°
Maximum altitude 20:04:56 68° 266° (W) 1,074 4.2 -27.6°
Enters shadow 20:06:54 45° 201° (SSW) 1,341 4.5 -27.9°
